GLO2120 SBSP-SBLO

Flight info

Callsign GLO2120
Flight time 0h 47m
Altitude 34000
Route ASETA UM415 EGEVA UZ58 UMPIG
Aircraft B737/M-SDE2E3FGHIRWXY/LB1

Departure

Time 2026-05-04 19:12
Airport Congonhas–Deputado Freitas Nobre Airport (SBSP)

Arrival

Time 2026-05-04 19:59
Airport Governor José Richa Airport (SBLO)
Time Latitude Longitude Altitude Speed Heading
2026-05-04 18:40 -23.62922 -46.65775 2599 ft 0 kts 328°
2026-05-04 19:02 -23.62924 -46.65774 2599 ft 2 kts 328°
2026-05-04 19:02 -23.62943 -46.65761 2599 ft 3 kts 336°
2026-05-04 19:02 -23.62960 -46.65756 2599 ft 3 kts 30°
2026-05-04 19:02 -23.62972 -46.65770 2599 ft 3 kts 57°
2026-05-04 19:03 -23.62975 -46.65776 2599 ft 0 kts 57°
2026-05-04 19:06 -23.62974 -46.65775 2599 ft 1 kts 57°
2026-05-04 19:06 -23.62967 -46.65763 2599 ft 3 kts 57°
2026-05-04 19:06 -23.62953 -46.65738 2599 ft 5 kts 57°
2026-05-04 19:06 -23.62931 -46.65701 2600 ft 7 kts 57°
2026-05-04 19:07 -23.62901 -46.65649 2600 ft 1 kts 57°
2026-05-04 19:07 -23.62895 -46.65640 2601 ft 2 kts 57°
2026-05-04 19:07 -23.62889 -46.65621 2601 ft 3 kts 87°
2026-05-04 19:07 -23.62903 -46.65593 2602 ft 6 kts 133°
2026-05-04 19:08 -23.62956 -46.65554 2602 ft 13 kts 147°
2026-05-04 19:08 -23.63049 -46.65517 2601 ft 16 kts 167°
2026-05-04 19:08 -23.63147 -46.65458 2601 ft 17 kts 147°
2026-05-04 19:08 -23.63234 -46.65397 2601 ft 10 kts 148°
2026-05-04 19:09 -23.63290 -46.65358 2601 ft 11 kts 148°
2026-05-04 19:09 -23.63358 -46.65312 2601 ft 12 kts 147°
2026-05-04 19:09 -23.63394 -46.65287 2601 ft 4 kts 147°
2026-05-04 19:09 -23.63427 -46.65264 2601 ft 7 kts 147°
2026-05-04 19:10 -23.63469 -46.65235 2600 ft 5 kts 147°
2026-05-04 19:10 -23.63501 -46.65206 2599 ft 7 kts 125°
2026-05-04 19:10 -23.63490 -46.65156 2593 ft 8 kts 45°
2026-05-04 19:10 -23.63443 -46.65115 2599 ft 9 kts 16°
2026-05-04 19:11 -23.63416 -46.65122 2601 ft 0 kts 328°
2026-05-04 19:11 -23.63400 -46.65134 2602 ft 19 kts 327°
2026-05-04 19:11 -23.63056 -46.65376 2609 ft 98 kts 327°
2026-05-04 19:11 -23.62288 -46.65915 2645 ft 160 kts 327°
2026-05-04 19:12 -23.61325 -46.66603 3445 ft 164 kts 327°
2026-05-04 19:12 -23.60369 -46.68704 5081 ft 180 kts 277°
2026-05-04 19:12 -23.60251 -46.70195 5399 ft 215 kts 278°
2026-05-04 19:13 -23.60103 -46.71885 6027 ft 226 kts 277°
2026-05-04 19:13 -23.59944 -46.73596 6890 ft 229 kts 277°
2026-05-04 19:13 -23.59827 -46.75365 7682 ft 240 kts 270°
2026-05-04 19:13 -23.60028 -46.77279 8158 ft 266 kts 263°
2026-05-04 19:14 -23.60340 -46.79307 9006 ft 276 kts 262°
2026-05-04 19:14 -23.60647 -46.81386 10021 ft 279 kts 263°
2026-05-04 19:14 -23.60939 -46.83476 10753 ft 291 kts 263°
2026-05-04 19:14 -23.61248 -46.85773 10978 ft 321 kts 263°
2026-05-04 19:15 -23.61482 -46.88275 11361 ft 339 kts 267°
2026-05-04 19:15 -23.61574 -46.90862 12174 ft 344 kts 268°
2026-05-04 19:15 -23.61631 -46.93485 13050 ft 348 kts 268°
2026-05-04 19:15 -23.61686 -46.96136 13907 ft 352 kts 268°
2026-05-04 19:16 -23.61749 -46.98817 14696 ft 354 kts 268°
2026-05-04 19:16 -23.61821 -47.01513 15486 ft 357 kts 268°
2026-05-04 19:16 -23.61899 -47.04233 16272 ft 360 kts 267°
2026-05-04 19:16 -23.61980 -47.06977 17025 ft 363 kts 268°
2026-05-04 19:17 -23.62063 -47.09740 17759 ft 367 kts 268°
2026-05-04 19:17 -23.62147 -47.12536 18463 ft 371 kts 268°
2026-05-04 19:17 -23.62232 -47.15359 19092 ft 373 kts 267°
2026-05-04 19:17 -23.62316 -47.18199 19719 ft 377 kts 267°
2026-05-04 19:18 -23.62398 -47.21071 20278 ft 381 kts 268°
2026-05-04 19:18 -23.62101 -47.23953 20876 ft 387 kts 284°
2026-05-04 19:18 -23.61155 -47.26714 21520 ft 390 kts 290°
2026-05-04 19:18 -23.60072 -47.29440 22104 ft 394 kts 291°
2026-05-04 19:19 -23.58954 -47.32190 22643 ft 398 kts 291°
2026-05-04 19:19 -23.57837 -47.34965 23191 ft 401 kts 290°
2026-05-04 19:19 -23.56728 -47.37763 23731 ft 404 kts 290°
2026-05-04 19:19 -23.55621 -47.40587 24207 ft 406 kts 289°
2026-05-04 19:20 -23.54516 -47.43423 24672 ft 408 kts 289°
2026-05-04 19:20 -23.53416 -47.46248 25137 ft 410 kts 289°
2026-05-04 19:20 -23.52329 -47.49129 25594 ft 411 kts 286°
2026-05-04 19:20 -23.51432 -47.52089 26059 ft 412 kts 283°
2026-05-04 19:21 -23.50624 -47.55092 26526 ft 414 kts 282°
2026-05-04 19:21 -23.49828 -47.58109 26971 ft 416 kts 283°
2026-05-04 19:21 -23.49011 -47.61140 27405 ft 418 kts 283°
2026-05-04 19:21 -23.48168 -47.64181 27830 ft 421 kts 283°
2026-05-04 19:22 -23.47309 -47.67233 28256 ft 423 kts 283°
2026-05-04 19:22 -23.46441 -47.70303 28679 ft 425 kts 283°
2026-05-04 19:22 -23.45571 -47.73377 29191 ft 423 kts 283°
2026-05-04 19:22 -23.44705 -47.76422 29912 ft 418 kts 283°
2026-05-04 19:23 -23.43576 -47.79348 30504 ft 421 kts 291°
2026-05-04 19:23 -23.42198 -47.82169 30997 ft 421 kts 293°
2026-05-04 19:23 -23.40771 -47.84951 31459 ft 420 kts 293°
2026-05-04 19:23 -23.39351 -47.87720 31982 ft 418 kts 293°
2026-05-04 19:24 -23.37955 -47.90483 32521 ft 414 kts 292°
2026-05-04 19:24 -23.36587 -47.93231 33036 ft 412 kts 292°
2026-05-04 19:24 -23.35235 -47.95976 33481 ft 411 kts 292°
2026-05-04 19:24 -23.33889 -47.98720 33924 ft 410 kts 292°
2026-05-04 19:25 -23.32544 -48.01469 34060 ft 414 kts 291°
2026-05-04 19:25 -23.29822 -48.07012 34068 ft 413 kts 291°
2026-05-04 19:26 -23.27478 -48.12560 34085 ft 400 kts 283°
2026-05-04 19:26 -23.25775 -48.18332 34082 ft 402 kts 282°
2026-05-04 19:27 -23.24033 -48.24131 34077 ft 404 kts 283°
2026-05-04 19:27 -23.22222 -48.29941 34078 ft 406 kts 283°
2026-05-04 19:28 -23.20408 -48.35716 34074 ft 407 kts 283°
2026-05-04 19:28 -23.18573 -48.41549 34071 ft 407 kts 283°
2026-05-04 19:29 -23.16738 -48.47382 34063 ft 408 kts 283°
2026-05-04 19:29 -23.14941 -48.53230 34066 ft 405 kts 278°
2026-05-04 19:30 -23.14248 -48.59203 34081 ft 395 kts 265°
2026-05-04 19:30 -23.14689 -48.65080 34079 ft 393 kts 261°
2026-05-04 19:31 -23.15234 -48.70985 34070 ft 392 kts 261°
2026-05-04 19:31 -23.15759 -48.76890 34078 ft 392 kts 261°
2026-05-04 19:32 -23.16267 -48.82795 34067 ft 393 kts 261°
2026-05-04 19:32 -23.16770 -48.88704 34076 ft 393 kts 261°
2026-05-04 19:33 -23.17269 -48.94617 34077 ft 392 kts 261°
2026-05-04 19:33 -23.17764 -49.00487 34069 ft 392 kts 261°
2026-05-04 19:34 -23.18259 -49.06391 34069 ft 392 kts 261°
2026-05-04 19:34 -23.18752 -49.12291 34063 ft 392 kts 261°
2026-05-04 19:35 -23.19249 -49.18192 34068 ft 392 kts 261°
2026-05-04 19:35 -23.19790 -49.24080 34073 ft 392 kts 261°
2026-05-04 19:36 -23.20334 -49.29974 34075 ft 392 kts 261°
2026-05-04 19:36 -23.20870 -49.35868 34055 ft 392 kts 261°
2026-05-04 19:37 -23.21379 -49.41740 34066 ft 393 kts 262°
2026-05-04 19:37 -23.21817 -49.47659 34071 ft 393 kts 262°
2026-05-04 19:38 -23.22251 -49.53582 34064 ft 392 kts 262°
2026-05-04 19:38 -23.22470 -49.56544 33717 ft 397 kts 262°
2026-05-04 19:38 -23.22692 -49.59523 33313 ft 391 kts 262°
2026-05-04 19:38 -23.22910 -49.62461 32767 ft 387 kts 262°
2026-05-04 19:39 -23.23125 -49.65361 32249 ft 383 kts 262°
2026-05-04 19:39 -23.23338 -49.68232 31739 ft 379 kts 262°
2026-05-04 19:39 -23.23547 -49.71077 31251 ft 375 kts 262°
2026-05-04 19:39 -23.23756 -49.73900 30747 ft 372 kts 262°
2026-05-04 19:40 -23.23972 -49.76709 30169 ft 372 kts 262°
2026-05-04 19:40 -23.24193 -49.79496 29607 ft 369 kts 262°
2026-05-04 19:40 -23.24410 -49.82225 29048 ft 365 kts 262°
2026-05-04 19:40 -23.24628 -49.84961 28539 ft 361 kts 262°
2026-05-04 19:41 -23.24842 -49.87667 28017 ft 357 kts 262°
2026-05-04 19:41 -23.25053 -49.90346 27518 ft 354 kts 263°
2026-05-04 19:41 -23.25262 -49.93000 27014 ft 351 kts 262°
2026-05-04 19:41 -23.25469 -49.95642 26530 ft 349 kts 263°
2026-05-04 19:42 -23.25673 -49.98257 26042 ft 347 kts 263°
2026-05-04 19:42 -23.25877 -50.00871 25555 ft 345 kts 263°
2026-05-04 19:42 -23.26079 -50.03465 25057 ft 344 kts 263°
2026-05-04 19:42 -23.26281 -50.06056 24524 ft 344 kts 263°
2026-05-04 19:43 -23.26481 -50.08647 24055 ft 343 kts 263°
2026-05-04 19:43 -23.26681 -50.11233 23534 ft 343 kts 263°
2026-05-04 19:43 -23.26881 -50.13816 22977 ft 342 kts 263°
2026-05-04 19:43 -23.27078 -50.16391 22465 ft 340 kts 263°
2026-05-04 19:44 -23.27275 -50.18954 21949 ft 338 kts 263°
2026-05-04 19:44 -23.27470 -50.21498 21453 ft 336 kts 263°
2026-05-04 19:44 -23.27660 -50.23996 20985 ft 334 kts 263°
2026-05-04 19:44 -23.27852 -50.26507 20510 ft 333 kts 264°
2026-05-04 19:45 -23.28043 -50.29014 20032 ft 331 kts 264°
2026-05-04 19:45 -23.28232 -50.31504 19540 ft 330 kts 264°
2026-05-04 19:45 -23.28421 -50.33988 19058 ft 329 kts 264°
2026-05-04 19:45 -23.28608 -50.36471 18566 ft 329 kts 264°
2026-05-04 19:46 -23.28780 -50.38955 18037 ft 329 kts 267°
2026-05-04 19:46 -23.28734 -50.41441 17438 ft 330 kts 272°
2026-05-04 19:46 -23.28605 -50.43926 16800 ft 327 kts 272°
2026-05-04 19:46 -23.28460 -50.46391 16004 ft 326 kts 273°
2026-05-04 19:47 -23.28313 -50.48845 15494 ft 325 kts 273°
2026-05-04 19:47 -23.28171 -50.51298 15009 ft 324 kts 273°
2026-05-04 19:47 -23.28079 -50.52917 14695 ft 323 kts 273°
2026-05-04 19:47 -23.27942 -50.55362 14207 ft 323 kts 274°
2026-05-04 19:48 -23.27809 -50.57794 13694 ft 323 kts 274°
2026-05-04 19:48 -23.27676 -50.60224 13190 ft 321 kts 274°
2026-05-04 19:48 -23.27545 -50.62637 12701 ft 319 kts 274°
2026-05-04 19:48 -23.27415 -50.65038 12235 ft 317 kts 274°
2026-05-04 19:49 -23.27286 -50.67423 11762 ft 315 kts 274°
2026-05-04 19:49 -23.27157 -50.69793 11287 ft 313 kts 275°
2026-05-04 19:49 -23.27029 -50.72153 10821 ft 312 kts 275°
2026-05-04 19:49 -23.26901 -50.74501 10443 ft 308 kts 275°
2026-05-04 19:50 -23.26777 -50.76781 10252 ft 297 kts 275°
2026-05-04 19:50 -23.26656 -50.78982 10076 ft 287 kts 275°
2026-05-04 19:50 -23.26538 -50.81138 9696 ft 285 kts 275°
2026-05-04 19:50 -23.26421 -50.83254 9328 ft 283 kts 275°
2026-05-04 19:51 -23.26303 -50.85389 8949 ft 281 kts 275°
2026-05-04 19:51 -23.26185 -50.87508 8584 ft 279 kts 276°
2026-05-04 19:51 -23.26068 -50.89608 8233 ft 276 kts 276°
2026-05-04 19:51 -23.25952 -50.91688 7879 ft 275 kts 276°
2026-05-04 19:52 -23.25837 -50.93752 7521 ft 273 kts 276°
2026-05-04 19:52 -23.25725 -50.95772 7380 ft 263 kts 276°
2026-05-04 19:52 -23.25616 -50.97725 7236 ft 254 kts 276°
2026-05-04 19:52 -23.25511 -50.99609 7135 ft 243 kts 276°
2026-05-04 19:53 -23.25413 -51.01364 7037 ft 228 kts 277°
2026-05-04 19:53 -23.25320 -51.03031 6925 ft 214 kts 277°
2026-05-04 19:53 -23.25149 -51.04605 6688 ft 206 kts 285°
2026-05-04 19:53 -23.24848 -51.06087 6486 ft 197 kts 286°
2026-05-04 19:54 -23.24551 -51.07514 6230 ft 190 kts 286°
2026-05-04 19:54 -23.24269 -51.08896 5992 ft 183 kts 286°
2026-05-04 19:54 -23.24006 -51.10207 5781 ft 173 kts 285°
2026-05-04 19:54 -23.23757 -51.11454 5559 ft 165 kts 286°
2026-05-04 19:55 -23.23513 -51.12675 5295 ft 166 kts 287°
2026-05-04 19:55 -23.23279 -51.13854 5077 ft 155 kts 286°
2026-05-04 19:55 -23.23113 -51.14983 4942 ft 148 kts 278°
2026-05-04 19:55 -23.23156 -51.16118 4760 ft 152 kts 265°
2026-05-04 19:56 -23.23431 -51.17209 4594 ft 149 kts 253°
2026-05-04 19:56 -23.23917 -51.18194 4414 ft 152 kts 239°
2026-05-04 19:56 -23.24625 -51.19082 4269 ft 158 kts 226°
2026-05-04 19:56 -23.25524 -51.19775 4055 ft 159 kts 211°
2026-05-04 19:57 -23.26541 -51.20205 3833 ft 153 kts 194°
2026-05-04 19:57 -23.27591 -51.20348 3643 ft 153 kts 180°
2026-05-04 19:57 -23.28663 -51.20297 3485 ft 155 kts 172°
2026-05-04 19:57 -23.29678 -51.19984 3246 ft 149 kts 150°
2026-05-04 19:58 -23.30518 -51.19382 3045 ft 142 kts 136°
2026-05-04 19:58 -23.31204 -51.18593 2877 ft 142 kts 126°
2026-05-04 19:58 -23.31744 -51.17695 2702 ft 140 kts 114°
2026-05-04 19:58 -23.32132 -51.16719 2491 ft 141 kts 109°
2026-05-04 19:59 -23.32472 -51.15706 2316 ft 143 kts 108°
2026-05-04 19:59 -23.32804 -51.14710 2123 ft 142 kts 108°
2026-05-04 19:59 -23.33128 -51.13704 1886 ft 136 kts 108°
2026-05-04 19:59 -23.33361 -51.13001 1877 ft 46 kts 109°
2026-05-04 20:00 -23.33387 -51.12930 1877 ft 1 kts 121°
2026-05-04 20:00 -23.33415 -51.12894 1877 ft 10 kts 120°
2026-05-04 20:00 -23.33406 -51.12873 1874 ft 3 kts 350°
2026-05-04 20:00 -23.33390 -51.12910 1876 ft 11 kts 289°
2026-05-04 20:01 -23.33351 -51.13029 1877 ft 23 kts 289°
2026-05-04 20:01 -23.33287 -51.13221 1876 ft 30 kts 289°
2026-05-04 20:01 -23.33209 -51.13455 1880 ft 36 kts 290°
2026-05-04 20:01 -23.33156 -51.13616 1879 ft 11 kts 290°
2026-05-04 20:02 -23.33115 -51.13703 1878 ft 7 kts 336°
2026-05-04 20:02 -23.33087 -51.13705 1878 ft 6 kts
2026-05-04 20:02 -23.33039 -51.13694 1878 ft 2 kts 350°
2026-05-04 20:02 -23.33022 -51.13714 1878 ft 6 kts 292°
2026-05-04 20:03 -23.33006 -51.13759 1877 ft 9 kts 291°
2026-05-04 20:03 -23.32986 -51.13792 1877 ft 2 kts 344°
2026-05-04 20:03 -23.32964 -51.13786 1877 ft 5 kts 18°
2026-05-04 20:03 -23.32944 -51.13778 1877 ft 3 kts 21°
2026-05-04 20:04 -23.32932 -51.13772 1877 ft 0 kts 22°